| time (UTC) | temp C | wind direction | speed KPH | gust KPH | rain 1hr cm | rain 24hr cm | rain mn cm | humidity % | barometer mb |
| 20260510185150 | 27 | 162 | 0.0 | 0.0 | 0.00 | 0.41 | 0.00 | 74 | 1014.7 |
| 20260510184210 | 27 | 96 | 0.0 | 0.0 | 0.00 | 0.46 | 0.00 | 74 | 1014.9 |
| 20260510183154 | 26 | 92 | 0.0 | 0.0 | 0.00 | 0.51 | 0.00 | 74 | 1015.1 |
| 20260510182152 | 27 | 105 | 0.0 | 0.0 | 0.00 | 0.51 | 0.00 | 74 | 1015.3 |
| 20260510181134 | 27 | 99 | 0.0 | 0.0 | 0.00 | 0.56 | 0.00 | 75 | 1015.4 |
| 20260510180135 | 26 | 102 | 0.0 | 0.0 | 0.00 | 0.61 | 0.00 | 74 | 1015.7 |
| 20260510174006 | 26 | 79 | 0.0 | 0.0 | 0.00 | 0.66 | 0.00 | 74 | 1015.8 |
| 20260510172941 | 26 | 147 | 0.0 | 0.0 | 0.00 | 0.69 | 0.00 | 74 | 1015.9 |
| 20260510171950 | 26 | 128 | 0.0 | 0.0 | 0.00 | 0.76 | 0.00 | 74 | 1016.0 |
| 20260510171011 | 26 | 133 | 0.0 | 0.0 | 0.00 | 0.94 | 0.00 | 74 | 1016.2 |
| 20260510170004 | 26 | 139 | 0.0 | 0.0 | 0.00 | 0.99 | 0.00 | 74 | 1016.3 |
| 20260510165015 | 26 | 169 | 0.0 | 0.0 | 0.00 | 1.22 | 0.00 | 74 | 1016.2 |
| 20260510164027 | 26 | 74 | 0.0 | 0.0 | 0.00 | 1.32 | 0.00 | 74 | 1016.3 |
| 20260510163012 | 25 | 161 | 0.0 | 0.0 | 0.00 | 1.37 | 0.00 | 73 | 1016.2 |
| 20260510161944 | 26 | 102 | 0.0 | 0.0 | 0.00 | 1.40 | 0.00 | 74 | 1016.3 |
| 20260510160946 | 26 | 123 | 0.0 | 0.0 | 0.00 | 1.47 | 0.00 | 72 | 1016.3 |
| 20260510154822 | 25 | 60 | 0.0 | 0.0 | 0.00 | 1.78 | 0.00 | 67 | 1015.9 |
| 20260510153839 | 25 | 141 | 0.0 | 0.0 | 0.00 | 1.85 | 0.00 | 64 | 1015.9 |
| 20260510151631 | 24 | 85 | 0.0 | 0.0 | 0.00 | 1.88 | 0.00 | 57 | 1016.0 |
| 20260510150620 | 24 | 82 | 0.0 | 0.0 | 0.00 | 1.88 | 0.00 | 51 | 1016.2 |
| 20260510145635 | 24 | 109 | 0.0 | 0.0 | 0.00 | 1.88 | 0.00 | 43 | 1016.2 |
| 20260510144608 | 23 | 83 | 0.0 | 0.0 | 0.00 | 1.88 | 0.00 | 31 | 1016.3 |
| 20260510143548 | 23 | 92 | 0.0 | 0.0 | 0.00 | 1.88 | 0.00 | 18 | 1016.1 |
| 20260510142514 | 23 | 114 | 0.0 | 0.0 | 0.00 | 1.88 | 0.00 | 1 | 1016.1 |
| 20260510141502 | 22 | 103 | 0.0 | 0.0 | 0.00 | 1.96 | 0.00 | 1 | 1016.0 |
| 20260510140450 | 22 | 46 | 0.0 | 0.0 | 0.00 | 2.18 | 0.00 | 1 | 1015.9 |
| 20260510135421 | 22 | 102 | 0.0 | 0.0 | 0.00 | 2.21 | 0.00 | 1 | 1016.1 |
| 20260510134403 | 21 | 102 | 0.0 | 0.0 | 0.00 | 2.21 | 0.00 | 1 | 1016.0 |
| 20260510133348 | 21 | 99 | 0.0 | 0.0 | 0.00 | 2.21 | 0.00 | 1 | 1015.9 |
| 20260510132350 | 21 | 103 | 0.0 | 0.0 | 0.00 | 2.21 | 0.00 | 1 | 1015.8 |
| 20260510131319 | 21 | 61 | 0.0 | 0.0 | 0.00 | 2.21 | 0.00 | 1 | 1015.7 |
| 20260510130323 | 21 | 68 | 0.0 | 0.0 | 0.00 | 2.21 | 0.00 | 1 | 1015.4 |
| 20260510125317 | 20 | 57 | 0.0 | 0.0 | 0.00 | 2.21 | 0.00 | 1 | 1015.3 |
| 20260510123146 | 20 | 82 | 0.0 | 0.0 | 0.00 | 2.21 | 0.00 | 1 | 1014.9 |
| 20260510122113 | 20 | 63 | 0.0 | 0.0 | 0.00 | 2.21 | 0.00 | 1 | 1014.8 |
| 20260510012945 | 20 | 161 | 0.0 | 0.0 | 0.00 | 2.21 | 2.21 | 1 | 1011.9 |
| 20260510010816 | 20 | 163 | 0.0 | 0.0 | 0.00 | 2.21 | 2.21 | 1 | 1011.7 |
| 20260510005756 | 20 | 183 | 0.0 | 0.0 | 0.00 | 2.21 | 2.21 | 1 | 1011.8 |
| 20260510004816 | 20 | 142 | 0.0 | 0.0 | 0.00 | 2.18 | 2.21 | 1 | 1011.8 |
| 20260510003835 | 20 | 145 | 0.0 | 0.0 | 0.00 | 2.18 | 2.18 | 1 | 1011.8 |
| 20260510002818 | 20 | 200 | 0.0 | 0.0 | 0.00 | 2.18 | 2.18 | 1 | 1011.9 |
| 20260510001822 | 20 | 177 | 0.0 | 0.0 | 0.00 | 2.18 | 2.18 | 1 | 1011.7 |
| 20260510000807 | 20 | 132 | 0.0 | 0.0 | 0.00 | 2.18 | 2.18 | 1 | 1011.6 |
| 20260509235739 | 20 | 195 | 0.0 | 0.0 | 0.00 | 2.18 | 2.18 | 1 | 1011.8 |
| 20260509234720 | 20 | 137 | 0.0 | 0.0 | 0.15 | 2.18 | 2.18 | 1 | 1011.6 |
| 20260509233739 | 20 | 172 | 0.0 | 0.0 | 0.36 | 2.13 | 2.18 | 1 | 1011.7 |
| 20260509232727 | 20 | 183 | 0.0 | 0.0 | 0.00 | 2.13 | 2.13 | 1 | 1012.1 |
| 20260509230522 | 20 | 176 | 0.0 | 0.0 | 0.00 | 2.11 | 2.11 | 1 | 1012.1 |
| 20260509225542 | 20 | 179 | 0.0 | 0.0 | 0.00 | 2.08 | 2.11 | 1 | 1011.6 |
| 20260509224509 | 20 | 208 | 0.0 | 0.0 | 0.00 | 2.08 | 2.08 | 1 | 1011.7 |
| 20260509223500 | 20 | 207 | 0.0 | 0.0 | 0.00 | 2.08 | 2.08 | 1 | 1011.5 |
| 20260509222424 | 20 | 181 | 0.0 | 0.0 | 0.00 | 2.08 | 2.08 | 1 | 1010.9 |
| 20260509221414 | 20 | 181 | 0.0 | 0.0 | 0.00 | 2.08 | 2.08 | 1 | 1010.6 |
| 20260509220422 | 20 | 182 | 0.0 | 0.0 | 0.00 | 2.08 | 2.08 | 1 | 1011.0 |
| 20260509215352 | 20 | 208 | 0.0 | 0.0 | 0.00 | 2.06 | 2.06 | 1 | 1011.2 |
| 20260509213228 | 20 | 181 | 0.0 | 0.0 | 0.00 | 2.06 | 2.06 | 1 | 1010.8 |
| 20260509212239 | 20 | 182 | 0.0 | 0.0 | 0.00 | 2.06 | 2.06 | 1 | 1010.9 |
| 20260509211224 | 20 | 177 | 0.0 | 0.0 | 0.00 | 2.06 | 2.06 | 1 | 1010.7 |
| 20260509210234 | 20 | 228 | 0.0 | 0.0 | 0.00 | 2.06 | 2.06 | 1 | 1010.5 |
| 20260509204132 | 20 | 197 | 0.0 | 0.0 | 0.00 | 2.06 | 2.06 | 1 | 1010.4 |
| 20260509203139 | 20 | 198 | 0.0 | 0.0 | 0.18 | 2.06 | 2.06 | 1 | 1011.1 |
| 20260509202110 | 20 | 198 | 0.0 | 0.0 | 0.15 | 2.03 | 2.03 | 1 | 1011.4 |
| 20260509200029 | 20 | 198 | 0.0 | 0.0 | 0.25 | 1.96 | 1.98 | 1 | 1011.8 |
| 20260509195037 | 20 | 197 | 0.0 | 0.0 | 0.23 | 1.93 | 1.96 | 1 | 1011.7 |
| 20260509194015 | 20 | 94 | 0.0 | 0.0 | 0.36 | 1.85 | 1.88 | 1 | 1011.8 |
| 20260509193014 | 20 | 213 | 0.0 | 0.0 | 0.15 | 1.83 | 1.85 | 1 | 1012.3 |
| 20260509192023 | 20 | 212 | 0.0 | 0.0 | 0.10 | 1.80 | 1.83 | 1 | 1012.6 |
| 20260509190951 | 20 | 212 | 0.0 | 0.0 | 0.00 | 1.80 | 1.80 | 1 | 1012.5 |